Theta_e
324 328 326 325 325 323 323 321 320 321 323 321 317 316 319 321 313 311 322 327 320 322 328 331 336 342 346 349 351 353 355 356 357 360 360 359 361 362 361 360 362 362 361 361 361 358 358 357 354 352 352 352 353 354 354 353 352 351 349 348 348 348 347 347 348 347 348 347 347 347 348 348 348 347 348 348 348 348 348 348 347 346 343 342 341 339 338
323 326 325 326 325 322 322 322 323 324 322 321 321 320 323 324 319 319 326 326 324 326 329 332 336 339 343 350 353 354 356 357 359 360 360 360 360 359 358 358 360 360 360 362 361 359 359 358 355 354 352 352 354 355 354 353 352 352 350 348 349 348 348 348 349 349 349 348 347 347 347 348 348 348 349 349 349 348 348 349 348 344 341 341 341 338 337
318 323 325 326 325 323 321 321 324 325 323 322 321 322 323 324 321 323 326 322 324 333 338 340 343 345 352 357 356 357 359 359 361 362 360 360 359 357 357 359 360 360 359 361 361 360 359 357 356 354 354 354 355 356 355 353 353 352 350 350 350 349 349 349 350 350 349 349 348 348 347 348 350 351 350 349 349 348 347 348 346 342 339 340 339 336 335
313 321 325 323 325 324 319 318 323 325 322 320 321 322 324 323 320 322 321 317 326 343 347 346 349 351 357 359 358 360 360 360 362 362 360 360 359 358 359 361 361 360 358 359 360 359 358 358 357 356 356 356 356 356 355 354 354 352 350 351 350 350 350 351 351 350 349 349 349 347 348 350 351 351 350 349 349 348 346 346 344 340 340 340 336 333 333
312 321 325 322 322 317 313 317 324 326 326 325 326 326 326 326 324 322 318 321 337 351 348 348 349 347 352 358 357 360 362 363 363 361 359 360 359 360 361 362 363 360 359 360 359 358 357 358 357 356 356 356 356 356 355 354 354 352 351 351 350 350 352 351 351 351 350 349 349 349 349 350 350 350 349 348 347 344 343 342 341 339 339 337 335 333 333
311 320 325 321 316 311 314 326 333 332 333 332 330 329 328 329 328 325 325 333 347 347 342 345 349 345 348 355 356 359 362 363 363 362 358 358 360 361 363 363 362 360 360 360 358 358 358 357 357 356 354 354 355 355 355 354 353 352 351 351 350 351 352 352 351 351 350 349 349 350 350 349 349 350 348 346 342 340 340 340 340 340 338 335 333 333 332
314 320 321 314 311 315 324 337 339 336 337 338 338 338 337 335 332 330 330 332 338 342 341 344 348 349 351 354 355 358 359 360 362 360 358 359 360 361 362 362 360 360 361 359 358 359 359 358 358 357 355 354 355 356 355 354 353 352 351 351 350 351 352 352 352 351 351 350 350 350 349 348 348 347 346 343 340 340 341 341 340 338 336 334 333 333 332
318 317 314 312 316 324 333 339 339 338 339 340 335 330 332 337 337 336 336 333 335 341 343 346 351 353 353 355 355 356 356 357 358 356 356 360 360 360 361 361 361 362 360 358 358 360 360 360 359 358 357 357 357 357 355 354 354 353 352 351 351 351 353 353 352 352 352 351 350 348 347 347 346 345 344 343 342 343 342 340 338 337 335 333 333 333 333
321 313 311 315 318 321 327 333 338 340 340 342 336 327 327 334 337 338 342 342 342 344 345 350 354 353 353 355 356 355 356 357 355 352 354 358 359 360 360 360 363 362 358 356 359 360 360 360 359 358 359 358 358 357 356 355 355 354 353 352 352 353 353 353 353 352 352 351 349 347 346 347 346 344 344 344 343 342 340 338 338 336 334 334 334 334 335
324 316 313 316 314 313 320 329 338 342 339 344 345 332 328 335 339 340 344 346 347 349 349 351 354 353 352 352 353 356 358 358 354 351 352 356 359 359 359 361 361 360 357 357 358 358 359 359 359 359 359 358 358 357 356 356 356 355 355 354 354 354 353 352 351 350 349 350 349 347 346 346 345 345 344 343 342 340 339 338 337 336 335 334 334 334 334
322 319 315 315 313 315 324 331 339 342 338 344 344 327 322 337 347 343 343 345 349 351 350 352 355 353 348 347 349 353 356 356 354 352 352 355 357 357 358 360 359 358 359 358 358 358 359 359 359 358 357 358 357 357 357 356 356 355 355 355 354 353 351 350 349 348 348 349 348 347 346 346 346 345 344 341 339 339 338 337 336 335 334 333 333 332 331
320 319 316 316 316 321 331 334 336 339 341 345 335 316 318 340 350 344 344 346 349 353 352 352 354 352 348 346 346 348 352 353 353 352 353 354 356 357 357 358 358 359 359 358 358 359 359 358 358 356 356 356 356 356 357 356 355 355 355 355 353 351 348 347 347 346 347 347 346 346 346 346 344 342 341 339 339 338 337 336 335 334 333 332 331 330 328
318 318 316 316 321 329 335 334 337 342 342 335 323 318 329 349 349 345 347 347 349 353 353 352 354 354 352 348 346 348 350 351 351 353 354 355 355 355 355 356 357 357 357 357 358 358 358 356 355 354 354 354 355 356 356 354 354 355 354 352 350 348 346 346 345 345 346 345 345 345 345 343 341 340 340 339 338 337 336 335 334 333 332 331 329 327 326
318 319 318 316 321 334 339 337 341 342 333 325 324 333 348 352 347 347 348 348 351 354 352 351 352 353 353 350 349 350 351 351 352 352 354 354 354 354 355 355 356 356 356 357 357 356 355 353 352 352 352 353 355 355 354 354 354 353 351 349 347 346 345 345 345 346 346 345 344 343 342 341 340 339 339 338 337 335 334 333 332 332 331 329 327 326 326
319 319 319 317 321 334 341 340 342 340 334 334 341 348 349 348 347 349 348 349 352 350 348 349 350 353 354 352 351 352 351 351 352 352 354 355 354 355 355 354 355 356 356 356 355 354 353 352 351 351 352 354 355 354 353 353 351 349 348 347 346 346 346 346 346 346 344 343 342 342 341 340 339 338 337 336 335 333 332 332 331 329 327 326 326 326 326
321 316 320 326 332 340 342 341 345 346 344 347 351 351 348 347 349 349 348 349 350 348 348 351 353 356 356 354 353 354 352 352 352 354 356 356 355 355 355 354 355 355 354 354 354 353 353 353 353 353 353 354 354 354 353 350 347 346 347 346 346 346 346 346 345 344 342 342 341 341 340 338 338 337 335 334 333 332 331 330 328 326 325 325 325 324 324
333 327 332 340 345 346 344 343 347 349 347 347 348 348 349 348 348 351 351 349 348 349 352 355 357 357 355 354 354 353 353 354 354 354 356 356 355 355 355 354 354 354 354 354 354 354 354 354 354 354 354 355 355 354 351 347 346 346 346 345 345 345 344 344 343 342 341 341 340 339 338 336 335 334 332 332 332 330 327 326 326 325 324 322 322 321 322
341 340 341 343 345 347 347 345 345 347 347 348 346 346 348 348 349 351 351 349 347 348 353 357 358 355 353 354 354 353 354 355 354 355 357 356 355 355 354 354 355 354 354 355 355 355 354 353 353 353 353 354 354 351 348 347 347 346 345 345 345 343 342 342 341 340 340 339 338 336 335 333 332 331 329 328 327 325 324 323 323 323 322 321 320 319 320
339 340 343 345 346 348 348 348 348 349 350 350 349 348 349 351 350 350 352 351 348 349 354 359 358 355 353 355 354 354 355 354 353 356 357 356 355 355 354 354 354 354 354 355 355 354 353 352 353 352 351 352 351 349 347 347 346 346 344 343 342 341 340 339 338 337 336 333 332 332 331 329 327 327 325 323 321 321 322 321 322 321 320 320 319 318 319
341 341 343 344 344 346 349 349 350 351 351 352 352 351 350 350 348 348 351 352 350 352 356 358 357 355 354 354 354 354 355 354 355 356 357 357 356 355 354 354 354 354 355 355 354 354 352 352 352 351 350 349 348 347 347 346 344 343 341 339 338 337 336 335 334 333 332 330 329 329 327 325 323 322 322 321 321 321 321 320 319 318 317 317 317 317 317
342 341 343 344 346 348 349 349 350 351 351 352 353 352 351 349 346 347 351 351 350 353 355 354 355 356 355 354 354 355 355 355 356 357 358 357 356 355 356 356 355 356 356 354 353 352 352 351 350 349 347 347 346 347 346 343 342 341 338 336 335 333 332 331 330 329 328 327 325 323 322 322 321 321 320 319 319 321 321 319 316 315 315 315 315 315 314
339 341 344 345 348 350 349 348 349 349 349 351 353 354 353 349 346 348 352 352 352 354 355 355 355 355 355 355 354 354 355 357 357 358 358 357 356 357 356 355 355 355 354 352 352 351 350 349 348 346 345 345 345 344 343 341 340 338 335 333 331 329 329 328 327 325 324 322 321 321 321 322 322 322 321 318 314 315 318 317 313 311 312 313 312 313 313
340 342 342 342 346 349 349 347 347 348 348 350 353 354 354 353 350 350 352 354 356 358 357 356 357 356 355 356 354 353 354 356 357 357 357 356 356 355 354 354 354 353 351 351 350 350 348 347 346 345 345 344 343 341 340 340 338 335 333 331 329 328 328 325 324 323 321 320 321 321 321 321 320 320 320 320 316 314 313 313 312 312 312 311 310 309 310
341 340 339 340 342 345 344 343 345 347 348 349 351 352 353 353 351 350 351 355 357 358 357 357 359 359 357 356 356 354 353 355 357 356 355 355 354 353 353 353 352 351 350 350 348 347 347 345 344 344 343 341 340 339 338 337 335 334 333 330 329 328 326 322 321 321 321 321 322 322 321 320 319 319 319 320 320 318 315 313 312 311 311 312 311 309 309
338 338 339 339 340 341 341 340 342 345 347 349 351 352 352 353 352 351 352 354 355 356 356 356 357 359 358 358 357 355 355 355 355 354 353 352 352 352 352 352 351 351 350 348 347 346 344 343 342 341 340 339 337 335 335 334 333 332 332 330 329 327 324 321 321 321 322 322 322 321 320 319 319 320 320 319 319 320 321 320 317 315 315 316 313 310 309
335 336 337 337 339 340 341 341 342 344 346 348 351 353 354 354 354 352 353 354 355 357 357 356 356 358 358 358 357 357 356 354 352 352 352 352 351 351 352 351 350 350 348 346 345 343 341 340 340 338 337 335 334 333 333 333 332 332 332 330 328 325 323 322 322 322 322 321 320 319 319 319 320 320 319 319 319 319 320 321 321 320 320 319 316 313 312
332 334 336 340 343 343 342 342 343 343 344 347 349 351 354 355 354 353 353 354 355 357 357 357 356 357 357 357 356 356 354 352 351 351 352 351 351 350 349 348 348 346 345 344 342 341 339 338 336 335 334 333 333 333 333 333 332 332 331 328 323 321 321 321 321 320 319 318 319 319 320 320 320 319 318 319 319 319 318 318 318 319 319 317 316 316 314
330 332 335 340 345 343 341 341 342 343 345 347 348 350 352 353 352 351 351 353 354 356 356 356 356 357 357 356 354 353 353 352 352 351 351 350 349 348 347 346 345 343 343 342 340 339 337 336 334 334 333 333 333 333 333 333 333 332 329 324 320 319 319 320 319 319 318 319 320 320 320 320 319 319 318 318 318 318 318 318 316 316 316 315 315 316 315
331 331 333 338 341 341 340 341 342 344 345 346 347 350 351 350 349 350 349 351 353 353 354 355 356 356 355 354 353 353 353 352 352 351 349 348 347 346 344 343 342 340 340 339 338 337 336 334 334 334 333 333 333 333 333 334 333 330 326 322 320 319 319 319 319 319 319 320 319 318 318 319 319 318 318 318 318 317 317 317 316 316 316 315 315 315 314
329 329 331 335 338 340 341 343 344 344 344 345 347 350 349 349 350 350 350 350 351 351 353 355 356 355 354 354 354 353 353 352 351 349 348 346 345 343 342 341 340 339 339 338 337 337 335 334 334 333 333 333 334 334 334 334 333 329 325 321 320 319 319 319 320 320 320 320 319 317 318 319 318 317 317 317 317 317 317 316 316 316 315 315 314 313 313
328 330 332 334 337 341 342 343 343 344 344 345 349 352 351 351 352 352 352 352 352 352 354 355 356 355 354 354 354 352 352 351 349 348 346 345 343 342 341 340 339 338 338 337 336 336 335 335 335 335 334 334 334 334 334 334 332 328 323 320 320 319 317 317 319 320 320 320 319 318 318 317 316 316 317 316 316 316 316 316 316 315 315 314 313 313 312
331 332 334 335 338 341 342 342 342 343 344 347 350 351 352 353 352 351 352 352 352 353 355 355 356 356 355 354 353 352 351 349 347 346 345 344 343 342 341 339 338 338 337 336 336 336 336 336 336 336 337 337 336 334 333 332 331 326 321 320 320 318 316 317 320 321 320 320 319 317 316 316 316 317 316 316 316 316 316 315 315 315 315 314 313 313 312
332 334 337 340 342 343 343 342 342 344 346 348 350 350 351 352 352 351 353 353 354 356 357 356 355 355 354 353 353 351 349 348 346 345 345 344 343 342 340 339 338 338 338 337 336 336 337 337 337 337 337 336 334 331 331 331 328 323 320 320 321 321 321 321 321 321 321 320 317 316 316 316 316 316 316 316 316 316 315 315 315 315 314 313 312 313 312
333 335 339 342 344 344 344 343 344 346 346 347 348 348 350 352 354 355 356 355 355 356 356 355 354 353 353 352 351 349 348 347 346 345 345 344 343 341 339 338 338 338 338 338 337 336 336 337 337 336 335 332 330 328 329 328 325 322 320 321 322 322 324 323 322 321 320 318 317 317 318 316 316 315 315 316 315 315 315 315 315 314 314 313 312 312 311
333 334 336 339 341 343 343 343 345 348 348 347 346 347 350 353 355 355 356 356 356 356 355 354 353 352 352 351 349 347 347 347 347 346 346 345 343 341 340 339 340 340 340 339 338 338 337 337 336 334 332 329 327 327 327 325 322 321 322 323 323 324 324 323 322 320 319 318 318 318 317 315 315 315 316 316 315 315 315 315 314 314 313 312 311 311 311
337 336 337 341 344 344 343 343 345 347 348 347 346 347 351 355 355 354 354 354 354 354 353 353 352 352 351 350 348 347 348 349 348 347 346 345 344 343 341 340 341 341 341 341 340 339 339 337 333 331 329 327 326 326 325 323 322 322 323 324 325 325 324 323 321 320 319 319 318 317 316 315 316 316 315 315 315 314 315 315 314 313 312 311 310 310 312
340 340 342 345 349 350 348 348 348 348 348 348 350 352 354 355 354 352 351 352 352 352 353 353 352 352 351 350 349 349 349 349 347 347 346 345 343 342 340 340 340 340 341 341 340 339 338 334 329 327 327 326 326 325 324 323 323 324 324 325 326 325 324 322 321 321 320 319 318 317 316 316 316 316 315 315 314 314 314 313 313 312 312 311 309 310 313
343 344 347 349 351 352 350 348 348 348 347 350 354 356 356 354 353 351 351 351 351 351 351 352 352 352 352 350 350 350 349 348 347 346 346 344 342 340 340 340 340 340 340 340 339 339 336 330 326 326 327 326 324 323 321 320 323 326 326 326 326 325 323 322 321 321 320 319 317 317 316 315 315 315 315 314 314 314 314 313 312 312 311 310 309 311 315
345 346 348 350 352 351 349 348 348 347 347 349 353 353 352 351 350 350 351 351 350 350 351 352 353 352 351 349 349 349 348 347 346 344 343 342 340 340 340 340 340 339 340 340 339 338 333 328 327 329 328 325 324 323 320 318 322 327 328 326 325 324 323 322 322 321 319 318 317 316 315 314 314 314 314 314 314 314 314 313 312 312 310 309 309 313 315
346 346 348 351 352 350 349 350 349 347 347 350 351 350 349 348 349 350 350 349 347 348 350 351 351 351 350 349 349 349 348 346 343 342 342 341 341 341 341 342 342 341 340 340 338 336 331 328 328 330 328 325 325 325 322 321 325 329 328 326 325 324 323 322 322 321 319 318 316 315 315 314 314 313 314 314 314 314 314 313 312 311 309 308 311 314 315
347 347 349 352 353 350 350 350 349 347 349 351 350 347 348 348 349 350 349 347 346 346 347 348 349 349 350 349 349 348 346 345 343 343 343 342 342 341 341 342 343 342 340 338 337 334 330 327 328 328 326 326 328 329 327 326 328 329 327 325 325 324 323 323 322 319 317 316 315 315 315 314 314 314 314 314 314 314 313 313 312 310 308 309 312 315 315
347 349 351 352 352 351 350 349 349 349 350 351 349 347 347 348 348 347 346 345 345 346 346 346 347 349 348 348 347 347 346 344 344 344 343 342 341 341 340 342 343 341 338 337 336 333 330 328 326 325 325 327 329 330 330 330 329 327 326 325 325 324 323 323 321 318 316 315 316 315 314 314 314 314 314 314 314 314 314 313 312 310 308 310 313 315 314
346 349 350 352 352 351 349 349 348 349 350 351 350 348 346 344 345 345 345 344 344 344 345 345 346 348 348 347 347 346 345 345 345 344 344 343 343 342 341 343 343 341 337 336 335 333 330 328 326 324 325 328 328 327 328 329 328 325 325 326 325 324 323 322 320 318 316 316 315 315 314 314 314 314 314 314 314 314 313 313 311 309 308 311 314 315 314
345 347 349 351 351 350 349 348 349 348 348 349 349 347 344 343 343 344 344 343 342 342 342 344 345 346 346 347 347 346 345 344 343 343 343 344 345 344 343 343 342 338 336 336 336 333 331 329 326 323 324 326 326 326 328 330 328 326 327 327 325 324 323 322 320 317 315 315 315 315 314 314 314 314 314 314 314 313 313 313 311 308 308 312 314 314 314
343 345 348 349 350 349 349 349 349 348 347 348 348 347 345 344 344 343 342 342 341 340 342 344 345 344 344 345 346 345 344 343 342 342 342 342 342 343 343 342 341 338 336 336 336 335 333 331 327 323 322 322 323 325 328 330 329 328 328 327 325 323 323 321 318 316 315 315 315 315 314 314 314 314 314 314 313 313 313 312 310 308 309 312 314 314 314
341 343 345 348 349 349 349 349 348 348 348 348 347 346 345 345 344 343 342 342 341 341 342 345 345 344 345 346 346 344 343 343 343 342 342 342 342 342 342 342 341 339 337 336 336 337 336 332 327 324 322 322 323 326 329 330 329 329 329 327 324 323 323 321 318 316 315 315 315 315 315 314 314 313 313 313 314 313 313 312 310 308 309 313 314 313 314
340 341 343 345 347 349 350 349 349 348 348 347 347 346 346 345 344 343 343 342 341 341 342 345 345 345 345 345 344 343 343 344 344 344 343 343 343 342 341 341 341 339 337 336 338 338 336 332 328 325 323 323 326 328 330 330 330 329 328 326 324 323 322 320 317 315 315 315 315 316 315 315 314 314 314 314 314 313 313 312 309 308 310 313 314 313 314
339 340 341 342 344 347 349 349 348 348 348 348 347 346 346 346 345 344 343 343 342 342 343 345 345 345 344 342 341 342 341 341 343 343 342 341 341 341 340 340 340 338 336 337 339 338 334 331 328 326 324 325 328 330 331 330 330 329 327 325 324 324 323 320 318 316 316 316 316 316 316 315 314 314 313 313 314 313 312 310 307 307 310 313 313 313 313
338 339 340 342 343 345 347 348 349 348 348 349 348 347 347 347 346 345 344 344 343 343 343 344 345 345 343 341 341 342 340 338 339 339 337 338 340 341 340 340 340 337 334 337 340 337 332 329 328 325 324 327 330 331 330 330 330 329 327 325 324 324 323 321 319 317 317 316 316 316 316 315 314 313 313 313 313 313 312 309 306 307 310 313 313 313 313
337 338 340 341 342 342 344 346 347 347 347 348 349 348 347 347 347 346 345 344 344 344 343 343 345 346 343 341 342 342 341 338 336 332 331 335 340 341 340 340 340 336 334 338 340 336 330 326 325 325 326 330 332 331 330 330 331 330 327 325 325 324 322 320 318 317 317 317 316 316 315 315 314 314 313 313 313 312 311 309 307 307 310 312 313 313 313
337 338 339 341 341 340 340 342 344 346 346 347 348 348 347 346 346 346 345 344 345 345 344 344 345 345 342 340 341 342 341 339 336 334 334 338 342 342 341 341 339 336 335 339 341 336 330 326 325 327 329 332 332 331 330 330 330 330 328 327 326 324 322 321 320 319 318 317 317 316 316 316 316 315 314 313 313 312 311 308 307 308 310 312 313 313 313
337 337 338 340 340 340 340 340 341 343 345 346 347 346 346 345 345 345 345 345 345 345 345 345 345 344 342 341 342 342 342 341 340 340 340 342 343 342 342 342 340 337 337 339 340 337 332 328 327 329 331 332 332 331 330 330 330 330 329 328 327 325 323 323 322 320 319 318 318 316 316 316 316 315 314 313 313 312 311 308 307 309 310 312 313 313 313
Wind_Speed
12 8 5 5 5 5 6 7 8 9 10 12 14 14 13 11 9 8 6 6 10 12 7 2 5 5 8 11 11 11 12 12 12 13 14 14 14 13 13 13 12 12 12 11 12 14 14 14 14 13 13 13 12 12 12 11 11 10 10 11 10 9 8 7 6 6 5 5 5 5 4 3 3 3 3 2 1 1 2 2 2 3 5 6 6 6 6
10 10 8 7 8 8 8 9 10 9 10 12 14 15 15 12 12 11 5 5 10 9 4 2 3 2 6 9 10 11 13 13 13 14 14 14 14 14 14 14 13 12 12 12 13 15 16 15 15 14 14 14 13 13 12 12 11 11 11 10 10 9 8 7 6 6 6 5 5 5 5 4 3 3 2 1 0 1 2 2 2 4 6 6 5 5 5
7 8 7 7 8 9 9 10 10 9 9 11 12 12 11 10 12 12 8 8 9 3 2 3 2 3 6 10 11 12 12 13 14 14 14 14 14 14 14 13 13 12 12 13 14 15 16 16 15 14 14 14 14 13 13 13 12 11 11 10 9 8 7 7 6 6 5 5 5 5 5 4 3 2 2 1 1 1 2 2 3 5 7 5 5 5 4
5 6 6 6 6 7 9 11 10 9 9 9 9 8 8 9 11 11 10 9 5 2 5 3 4 6 9 12 13 12 11 13 14 14 14 14 14 14 13 13 13 13 13 13 14 16 16 16 15 14 14 14 14 14 14 13 12 11 11 10 9 8 7 7 6 5 4 4 4 5 4 4 3 3 3 2 1 1 2 3 4 6 6 4 4 4 4
3 4 3 4 4 6 8 8 8 10 9 8 8 8 9 11 11 9 8 5 1 4 4 3 5 7 10 11 12 12 12 13 13 14 14 14 14 13 13 13 14 13 13 14 15 16 17 16 15 15 15 14 14 13 13 12 11 11 11 10 9 8 7 6 5 4 4 4 4 5 4 4 3 3 3 3 2 1 4 6 6 6 5 4 4 4 5
3 3 1 4 6 7 4 3 2 5 6 6 8 8 9 11 11 9 8 3 3 3 1 1 1 5 8 10 11 11 11 12 12 13 13 14 14 13 12 13 14 13 13 15 16 17 17 16 15 15 14 14 13 12 12 12 11 11 11 10 9 8 7 5 5 4 5 5 5 4 5 4 4 3 3 3 2 4 8 9 6 5 4 4 4 5 7
3 1 3 7 7 4 3 5 4 0 3 5 7 8 9 10 12 13 13 9 3 1 1 2 2 3 6 8 10 11 11 11 11 12 12 13 13 13 12 13 13 13 15 17 17 17 17 16 15 15 14 13 12 12 12 12 11 10 10 9 9 8 7 5 5 6 6 6 5 4 4 4 3 3 3 4 5 7 8 6 4 4 4 4 5 6 8
3 4 6 7 3 2 5 4 3 1 2 4 6 9 10 11 11 12 12 11 6 3 2 1 2 4 6 7 7 9 10 11 11 11 11 12 13 13 13 13 14 15 17 18 18 18 17 16 15 14 13 12 12 12 12 11 10 9 9 9 9 8 7 6 6 6 6 5 5 4 4 4 4 4 5 6 7 7 6 4 3 4 4 5 6 8 9
4 6 7 5 3 3 5 4 3 3 3 3 4 7 7 6 8 8 7 7 5 2 2 3 5 6 7 6 6 7 9 9 10 10 11 13 13 13 14 16 16 17 18 18 18 17 16 16 15 14 13 12 12 12 11 10 10 9 10 9 8 7 7 6 6 5 5 5 5 5 5 5 5 5 6 6 6 6 4 3 3 4 5 7 8 9 9
3 6 7 6 6 7 6 5 4 2 2 2 3 6 5 3 4 4 4 5 4 2 2 5 6 7 8 7 7 8 8 8 8 9 11 12 13 14 15 16 16 17 18 17 17 17 16 15 14 13 13 12 12 11 11 10 10 10 10 8 7 7 6 6 5 5 5 5 6 5 5 4 4 5 5 5 3 2 2 2 4 4 6 8 8 8 8
4 5 8 7 7 6 2 4 4 2 0 1 3 6 5 3 2 1 3 4 3 2 4 6 7 7 7 7 7 9 10 9 8 10 11 12 14 15 15 16 17 17 17 16 16 16 15 14 13 13 13 13 11 11 10 10 10 9 8 6 6 6 6 5 5 5 5 6 5 4 4 4 4 3 3 1 1 1 1 3 5 6 7 8 8 8 8
6 7 7 6 7 4 3 4 3 2 2 2 6 7 3 1 2 1 2 2 2 4 6 6 6 4 3 5 9 12 13 11 9 10 12 12 14 15 16 17 17 17 16 16 15 15 14 14 13 13 13 12 11 10 10 9 9 7 5 5 5 6 6 5 6 6 6 5 4 4 3 3 2 1 2 2 1 0 2 4 6 6 7 7 8 8 8
8 8 7 7 6 3 2 4 3 3 4 4 6 4 2 2 0 1 2 3 4 6 7 7 4 2 3 5 14 15 14 13 11 12 14 14 15 16 16 17 17 16 15 15 14 14 13 13 13 13 12 11 10 9 9 8 7 5 5 5 6 6 6 6 6 6 6 5 3 3 3 3 3 3 2 1 1 2 3 4 5 5 6 7 7 8 8
8 7 7 8 6 2 1 3 4 3 4 4 2 1 2 2 1 2 2 4 7 9 8 6 5 3 4 11 16 15 13 13 13 13 15 16 16 17 17 17 16 16 15 15 14 13 13 13 13 12 12 11 10 9 8 7 6 6 6 7 7 7 7 7 7 6 5 3 3 4 4 4 3 3 2 2 3 3 3 4 4 5 6 7 7 8 7
8 8 8 9 6 0 2 2 4 3 3 2 2 0 1 1 1 3 4 5 7 10 9 7 7 7 9 12 13 13 13 14 13 13 14 15 16 17 17 16 16 16 16 15 15 14 13 13 12 11 12 11 10 9 9 8 8 7 7 7 8 8 8 8 7 6 6 6 5 5 5 4 3 2 3 3 3 3 3 4 5 6 7 7 7 7 7
6 8 5 4 2 2 3 3 2 2 2 3 4 3 0 1 1 2 3 5 6 7 8 9 10 10 11 12 12 13 13 13 13 13 14 15 16 16 16 16 16 17 16 16 15 14 13 12 11 11 11 10 10 11 11 10 9 8 9 10 10 11 10 9 9 8 7 6 6 5 5 4 3 3 3 3 2 3 4 5 6 6 7 7 7 8 8
5 6 4 2 2 1 3 4 4 6 5 4 4 6 3 1 2 2 3 6 6 4 5 9 12 12 12 12 12 13 13 13 13 13 14 15 16 17 17 17 16 16 16 17 16 14 13 12 11 10 9 9 11 13 12 11 10 10 11 11 11 12 11 10 9 8 7 6 6 5 4 4 3 3 3 2 2 3 4 5 5 6 7 7 8 8 9
6 7 7 5 3 1 2 3 4 6 7 5 4 5 4 1 2 3 4 8 10 8 7 8 10 12 14 14 13 13 13 13 13 13 14 16 16 17 17 17 17 17 17 17 16 16 14 13 12 10 9 9 12 14 13 12 12 12 12 12 12 11 10 9 8 6 5 5 5 5 5 4 3 3 3 3 3 4 5 5 5 6 8 8 9 9 10
6 5 3 5 6 4 3 4 4 4 5 5 5 5 4 3 3 3 2 5 9 11 10 9 10 13 15 15 14 12 12 13 13 13 14 15 16 17 17 17 18 18 17 17 17 17 16 14 12 12 11 11 12 13 13 12 12 12 12 12 12 10 9 8 7 5 5 4 4 4 4 3 3 3 4 4 4 4 5 5 6 7 8 9 10 10 10
7 7 6 9 8 5 2 3 4 3 4 6 5 5 5 4 4 3 2 4 7 10 11 12 13 14 15 15 14 12 12 11 11 12 14 16 17 17 17 17 17 17 17 18 17 17 16 15 14 14 14 14 13 13 12 12 12 12 11 10 10 9 8 7 6 5 5 4 3 3 5 5 5 5 5 5 5 5 6 7 8 9 10 10 11 11 12
8 8 7 11 9 5 1 2 3 4 5 6 6 6 5 5 5 4 3 4 7 8 10 12 14 14 14 15 15 13 12 11 11 12 15 17 17 17 16 16 16 16 18 18 17 17 17 16 16 16 16 15 13 12 11 11 11 11 10 9 9 8 7 6 5 4 4 4 4 4 4 4 4 4 5 6 6 5 5 7 8 9 10 11 11 12 14
6 3 5 10 7 5 4 6 6 5 6 6 6 6 6 6 7 6 5 6 6 8 10 12 13 14 14 14 15 14 12 11 12 15 16 17 17 16 16 16 17 18 18 18 18 19 18 18 18 17 16 14 12 12 11 11 10 10 10 8 7 7 6 5 5 3 3 4 5 4 4 4 4 3 3 5 6 5 5 7 9 9 8 8 11 13 14
7 7 8 8 6 6 8 10 10 7 6 6 6 7 7 6 7 8 8 9 8 8 9 11 13 14 15 15 16 14 12 13 15 16 16 16 17 17 18 18 19 19 18 19 20 20 19 18 17 16 15 14 12 12 11 10 11 10 9 7 6 6 5 6 5 4 4 4 5 4 4 5 5 3 2 3 3 3 4 7 8 7 7 8 11 13 13
9 11 11 9 8 9 11 13 13 10 7 7 6 6 6 6 8 10 10 10 10 9 9 11 14 15 16 16 17 15 15 16 17 17 17 18 18 18 19 20 20 21 21 21 21 20 19 18 17 16 15 13 12 12 11 11 11 10 9 7 6 5 6 6 5 4 4 4 4 3 4 4 4 3 3 4 2 1 2 5 6 6 6 9 12 12 11
10 11 11 11 11 12 12 13 13 10 7 7 7 6 6 6 8 10 9 9 10 10 11 12 14 16 17 17 18 18 17 18 19 19 19 19 19 19 20 20 21 22 21 21 20 19 19 18 17 16 15 13 12 12 12 11 11 10 9 7 6 5 5 5 4 3 3 3 3 2 3 2 2 2 4 5 5 3 3 4 5 5 6 9 11 12 12
11 11 12 13 12 10 8 8 9 9 8 7 7 7 5 4 6 9 9 9 10 11 12 13 14 17 18 18 18 20 20 20 21 20 20 20 20 19 20 20 20 21 21 20 19 19 19 18 17 16 15 14 13 13 12 12 11 10 9 7 6 6 5 5 4 3 2 2 3 2 2 2 2 2 3 4 5 5 5 5 5 6 7 9 10 12 15
11 9 10 10 8 6 5 6 8 12 12 10 9 7 4 4 7 9 11 10 11 13 15 16 17 17 18 18 19 21 22 22 21 19 18 19 20 19 20 20 21 21 21 20 19 18 19 18 17 16 15 14 14 13 13 12 10 9 9 8 7 7 6 4 4 4 4 4 4 3 2 1 2 3 4 3 4 4 5 7 7 7 8 8 9 11 15
10 8 7 7 6 7 9 10 9 11 10 10 10 8 5 6 7 10 12 12 13 13 15 17 18 17 17 18 19 20 20 21 20 19 18 19 20 20 21 22 21 21 20 19 18 18 17 17 16 16 15 14 14 13 12 11 10 9 9 8 8 8 6 5 5 5 5 4 4 2 1 2 3 3 4 4 4 5 5 6 7 8 8 9 9 10 12
9 8 8 7 6 7 11 10 8 8 9 11 13 11 7 8 9 11 12 13 13 13 13 15 16 16 17 19 20 19 18 18 18 19 19 19 21 21 22 21 21 20 19 18 17 16 16 16 16 16 15 14 13 12 11 10 9 9 8 8 7 7 6 6 6 6 5 4 2 0 1 2 2 3 3 3 4 6 6 6 7 8 8 9 9 10 11
9 10 11 9 6 7 9 8 5 6 7 10 13 12 8 10 10 11 13 13 12 12 13 14 15 16 17 18 18 18 19 19 19 19 20 20 21 21 21 21 20 18 17 16 16 16 16 16 15 15 14 13 12 10 9 8 8 8 8 7 7 6 6 5 4 4 4 3 1 2 2 1 2 3 3 4 4 5 5 6 7 8 8 8 9 10 11
12 13 13 11 8 7 9 7 4 4 8 13 12 8 7 10 12 12 13 12 12 12 14 15 15 16 17 18 18 19 20 20 20 20 20 20 20 20 19 19 18 16 16 16 16 16 15 15 14 13 13 11 10 9 8 8 8 9 8 7 7 6 6 5 3 1 1 1 0 1 2 3 3 3 3 5 5 5 5 6 7 7 8 8 9 10 11
13 14 15 14 10 8 8 7 6 9 13 12 8 5 5 8 12 13 12 12 13 14 15 15 15 16 18 19 20 21 21 21 21 21 20 19 19 18 17 16 16 17 17 16 16 15 15 14 13 12 11 10 9 8 7 8 9 9 8 8 7 6 5 4 3 1 1 0 1 2 4 4 3 3 4 5 5 6 6 6 7 7 7 8 9 9 11
11 11 11 11 10 8 9 11 13 14 14 11 8 8 7 6 9 11 11 12 13 14 13 14 14 16 18 20 20 21 22 21 20 20 19 18 17 16 15 15 17 17 17 15 15 14 13 13 12 11 10 9 7 7 7 8 9 8 8 7 6 5 3 2 2 2 2 1 2 3 4 4 4 4 5 5 5 5 6 6 7 7 7 8 9 9 10
13 12 12 10 9 10 13 15 14 11 11 10 9 9 8 6 7 9 11 13 13 12 14 16 17 17 19 20 20 22 21 17 15 16 18 18 17 16 16 16 17 16 15 15 14 13 12 11 11 11 10 8 7 7 8 9 8 8 7 6 4 3 2 1 1 1 1 1 2 2 3 4 4 4 5 5 5 5 5 6 7 7 7 8 9 9 10
20 19 18 16 14 12 13 14 12 10 10 10 9 9 8 8 9 9 10 13 14 15 17 20 19 19 20 20 20 20 18 16 15 17 18 17 16 16 17 17 17 16 15 14 12 11 11 11 11 10 9 8 7 8 10 10 9 8 6 5 3 1 1 1 1 1 1 2 2 2 4 4 4 4 4 4 4 5 5 6 7 8 8 9 10 10 10
20 18 15 13 10 6 7 9 10 8 7 8 9 9 8 8 10 10 11 13 15 16 18 19 19 19 19 19 19 19 18 18 18 19 18 17 16 16 17 17 17 16 14 12 11 11 11 10 11 11 9 8 8 10 10 9 8 7 5 4 2 2 2 2 2 2 2 2 2 3 4 2 2 2 4 4 4 5 5 6 7 8 8 9 10 11 10
12 10 7 4 2 3 5 6 7 7 7 6 6 6 7 8 10 11 11 13 15 16 16 17 18 18 17 17 18 18 18 19 19 18 18 17 17 16 16 16 16 14 13 12 12 11 10 11 12 12 9 9 9 11 11 10 8 6 5 3 2 1 2 2 2 2 2 2 2 2 2 1 1 2 3 4 4 5 6 7 8 8 9 9 10 10 10
5 4 2 0 2 4 5 5 6 6 7 5 5 7 7 9 10 11 10 11 13 14 15 15 16 17 16 16 17 17 18 18 18 18 18 17 16 16 15 15 14 13 11 12 13 11 10 12 13 11 9 9 10 11 12 11 8 5 3 2 1 2 2 3 3 2 2 2 1 2 2 3 3 3 3 4 5 5 6 7 8 8 9 9 10 9 10
5 3 1 2 3 4 5 5 4 5 5 5 8 8 8 9 10 10 10 10 11 12 13 14 15 16 16 16 16 16 17 17 18 18 17 17 16 15 14 13 12 10 11 13 14 12 12 14 13 10 9 10 11 11 12 11 7 3 2 2 2 2 3 3 3 2 2 2 1 2 2 3 3 3 4 4 5 5 6 7 8 8 9 9 9 9 10
6 4 2 2 4 5 4 4 3 4 5 7 8 9 9 10 10 11 11 10 9 9 10 12 13 14 14 14 15 15 16 17 17 18 17 17 16 14 13 11 10 9 12 14 14 13 15 15 12 9 10 11 10 10 11 9 6 4 2 2 2 2 3 3 2 2 2 2 1 2 2 3 3 3 4 5 5 5 6 7 8 9 9 9 8 8 9
7 5 3 2 4 5 5 4 3 5 5 7 9 10 11 11 11 11 12 11 9 8 9 9 10 11 11 12 13 15 15 16 17 17 17 16 15 13 11 11 10 11 13 14 14 15 16 15 10 10 13 12 10 10 10 8 6 4 3 2 2 3 3 3 3 3 3 2 2 3 3 3 3 3 4 5 5 6 6 7 8 8 8 8 8 8 9
10 7 3 4 5 5 6 6 5 7 6 7 9 9 9 10 12 14 14 13 11 9 8 7 8 11 13 13 13 14 14 14 15 16 15 14 13 11 10 11 12 12 14 16 15 15 15 12 10 11 14 12 11 11 10 7 5 5 4 3 3 2 3 3 4 3 2 2 3 3 3 3 3 4 4 5 5 6 6 7 7 8 8 7 7 8 9
11 7 4 4 5 7 7 7 7 7 6 5 6 8 11 12 12 14 15 14 12 12 12 10 8 10 13 14 15 14 13 14 15 14 11 10 9 8 8 11 13 14 16 17 16 15 13 11 11 13 14 13 12 12 10 6 5 5 4 3 3 2 3 3 3 2 2 2 3 3 3 3 4 4 4 5 5 6 6 7 7 7 7 6 7 8 9
11 8 5 3 5 7 8 7 7 7 7 5 4 10 12 12 12 12 13 14 12 10 10 11 10 9 9 11 12 13 12 13 14 13 11 8 7 6 6 10 13 16 17 16 14 13 13 11 11 14 16 14 12 11 8 6 5 5 4 3 3 3 3 3 3 2 2 3 3 3 4 4 4 4 5 5 5 5 6 6 7 7 6 6 6 8 8
11 9 7 3 2 5 7 7 7 7 7 5 4 7 7 9 11 11 12 13 12 9 8 9 11 12 12 11 12 13 14 14 14 14 12 10 8 8 9 10 12 16 19 17 13 12 13 12 12 14 17 16 13 10 7 5 5 5 4 3 3 3 3 3 3 3 3 3 3 3 3 4 4 4 5 4 4 5 6 6 6 6 6 6 7 7 8
12 10 8 5 3 3 5 7 7 7 7 6 6 5 6 8 11 11 9 9 10 10 9 10 12 15 15 14 15 16 16 14 13 13 13 10 8 9 12 12 13 17 20 18 14 12 13 14 14 15 16 15 13 10 7 6 6 6 5 4 4 4 3 4 4 3 3 3 3 4 4 4 4 4 4 4 4 5 5 5 5 5 5 5 6 7 7
11 10 9 7 5 2 3 6 8 9 9 8 7 8 10 10 10 10 8 9 10 11 12 12 14 16 17 17 18 19 18 14 11 11 12 10 8 9 13 14 15 19 21 19 13 11 13 16 17 16 15 14 12 9 7 7 7 6 5 5 4 4 4 4 4 4 4 4 3 3 4 4 4 4 4 3 3 4 4 4 4 4 4 4 5 6 7
11 10 9 8 6 3 1 5 6 8 8 9 9 11 12 11 11 12 12 13 14 15 16 17 16 16 18 20 21 21 21 19 14 11 12 12 10 10 13 15 17 20 22 18 13 11 13 17 19 17 16 14 11 8 7 8 8 7 6 6 5 4 4 4 4 4 4 4 3 2 3 4 4 4 3 3 4 4 4 5 4 4 4 4 5 6 6
10 10 9 7 6 4 2 4 4 4 6 9 10 12 12 12 13 15 16 17 18 19 20 20 17 16 18 20 20 20 23 23 20 18 18 16 11 10 13 16 18 21 21 18 13 11 14 17 19 19 17 14 10 8 8 9 8 7 7 6 5 4 4 4 4 3 3 3 2 3 3 4 4 4 4 4 4 4 4 4 5 5 4 4 5 5 6
10 10 8 7 7 5 3 3 3 2 4 6 8 11 13 14 14 14 16 17 18 18 19 18 16 14 16 18 16 16 20 22 22 22 22 18 12 11 14 16 19 22 21 17 13 13 16 19 20 20 18 14 10 8 8 8 8 7 7 7 6 5 5 5 5 4 3 2 3 3 3 4 4 4 4 3 4 4 4 3 4 5 5 5 5 5 5
10 9 8 7 7 6 5 5 5 4 3 4 6 9 12 13 13 14 16 17 17 16 16 16 15 14 15 15 14 15 18 20 19 20 20 18 13 13 14 16 20 23 21 16 13 15 17 19 21 21 17 13 10 9 8 8 8 8 7 7 6 6 6 5 5 4 3 3 3 3 3 3 4 3 3 3 3 3 3 3 3 3 4 4 5 5 5
10 9 8 7 6 6 5 4 4 4 4 5 5 6 8 10 11 13 15 17 16 16 16 16 15 15 16 16 14 15 17 18 17 17 18 17 15 15 16 16 19 21 20 16 14 16 17 18 19 19 16 12 10 9 9 9 9 9 8 7 7 6 5 5 5 5 4 3 3 3 3 3 3 3 4 3 3 3 3 3 3 3 3 4 5 5 5
Wind_Direction
249 257 240 235 259 270 262 249 234 221 214 215 218 226 234 234 238 249 242 219 239 262 275 99 112 175 184 172 168 160 156 160 159 157 159 159 159 161 162 165 165 162 159 156 155 153 149 148 149 149 152 154 157 159 154 149 150 152 155 158 157 157 161 166 172 179 184 188 193 196 197 197 204 210 208 217 255 296 307 309 320 341 341 335 332 334 336
244 241 236 235 246 254 251 245 244 236 222 217 218 225 230 229 237 248 253 249 255 269 297 73 96 177 178 158 153 155 157 160 162 162 164 163 164 168 169 168 168 167 163 159 157 154 151 150 150 151 155 158 161 161 158 157 160 162 163 163 164 169 176 182 187 194 201 206 209 209 212 221 228 221 216 237 329 350 344 344 342 339 335 329 326 331 334
232 224 229 234 240 249 249 243 240 234 228 221 218 226 228 222 234 244 251 261 262 272 64 89 113 146 151 147 151 157 160 162 164 167 167 166 168 171 170 166 165 166 165 162 160 157 154 152 153 155 158 162 164 161 161 164 166 166 166 168 173 181 188 195 200 206 211 212 213 216 221 225 217 192 180 160 106 25 342 332 317 322 323 318 319 324 325
213 186 217 233 233 243 244 236 227 220 222 220 216 222 222 220 230 234 237 250 253 120 104 118 142 158 162 158 156 158 162 165 168 171 170 169 169 170 166 163 163 166 165 164 164 161 156 155 157 160 162 164 165 164 164 167 165 165 168 173 180 188 196 202 205 208 211 210 214 222 222 209 187 167 159 143 102 41 333 312 309 314 312 307 311 314 315
203 141 211 243 220 226 230 220 212 214 220 224 224 223 223 228 234 233 231 239 127 103 122 134 152 172 175 170 164 162 163 167 172 176 173 169 167 166 163 161 163 166 166 164 164 161 159 161 163 165 166 167 167 166 164 162 162 166 173 178 184 194 201 204 206 205 204 208 218 221 209 189 181 171 153 142 126 47 334 315 304 301 298 295 299 307 318
229 127 195 240 220 221 211 117 143 215 232 239 237 233 229 228 230 240 254 267 79 94 120 61 139 180 179 174 168 162 163 167 173 178 174 167 164 162 160 162 164 166 164 162 161 161 162 165 165 167 170 170 167 162 157 159 164 170 177 183 192 201 205 203 201 199 203 214 217 207 194 185 176 164 159 177 214 297 314 306 289 282 288 293 299 310 320
251 166 221 229 225 207 115 93 96 145 273 260 256 259 250 235 231 240 254 260 252 239 283 12 38 169 167 164 161 159 164 168 171 175 169 162 162 161 161 164 164 164 162 160 160 161 163 164 164 168 173 170 162 156 157 164 170 174 181 191 200 205 203 197 198 201 206 211 203 190 191 186 170 173 214 239 266 295 301 286 264 271 289 300 309 315 319
250 241 226 226 233 102 110 127 134 145 238 236 249 257 247 237 233 235 249 263 270 258 232 128 118 152 151 150 152 155 161 166 170 172 164 158 161 163 163 164 162 162 164 162 159 159 160 162 165 170 173 166 157 156 161 168 172 177 187 197 203 203 198 195 198 201 201 195 191 201 213 203 194 217 239 253 278 291 284 257 251 272 288 303 313 317 320
245 250 236 229 251 198 174 185 189 204 241 241 255 261 252 250 249 240 250 270 277 257 204 149 139 154 156 154 151 146 151 165 172 167 157 155 159 161 161 160 159 161 163 160 157 157 158 162 167 169 167 160 155 157 163 168 173 182 196 203 203 198 195 194 194 198 199 190 192 209 220 216 222 242 253 260 272 277 262 246 261 278 294 307 314 318 321
247 265 250 237 244 233 206 177 156 171 282 312 294 269 250 228 241 247 259 272 273 248 185 153 153 166 169 168 161 146 146 160 164 149 143 149 154 153 152 151 153 158 160 157 156 156 157 160 164 165 161 158 157 160 164 169 177 191 203 203 194 192 194 194 195 206 214 202 195 202 212 222 237 252 258 259 260 245 230 257 276 290 305 312 318 324 327
240 259 257 245 246 248 200 132 130 129 281 286 263 255 236 176 149 218 259 272 266 196 164 163 170 177 174 169 158 149 153 159 151 137 136 141 142 140 142 145 148 152 152 151 151 153 154 157 161 162 159 159 162 163 164 172 185 197 201 190 181 188 194 195 201 210 209 198 194 204 225 238 243 241 238 232 155 159 248 283 296 309 318 321 325 330 330
229 233 253 255 254 274 73 117 172 151 115 212 242 246 249 76 81 169 212 224 200 158 154 161 169 182 202 166 146 147 154 153 139 131 132 133 135 135 138 141 141 141 142 144 147 150 152 154 157 158 158 162 167 164 163 175 189 193 185 170 169 179 183 187 194 197 199 202 207 216 222 216 197 142 106 97 88 314 302 312 320 327 330 327 326 327 326
225 218 236 253 259 289 82 145 174 142 144 211 244 255 312 357 17 119 149 161 146 144 153 152 143 350 336 131 136 141 147 141 130 125 124 126 131 131 131 132 133 136 141 144 145 145 146 149 153 157 163 168 167 161 163 175 179 166 151 149 154 164 172 176 180 188 201 212 208 184 162 135 111 97 88 67 7 343 337 336 336 333 329 325 323 322 322
238 225 231 238 240 270 98 141 123 138 207 232 263 285 318 320 354 110 147 151 137 146 153 132 97 53 84 119 128 135 137 130 123 122 123 125 126 123 124 128 132 136 138 138 137 136 139 146 152 158 165 166 159 156 160 159 147 136 136 141 147 155 161 163 170 177 178 167 140 125 115 107 104 99 74 38 22 11 356 344 332 324 321 322 320 320 321
240 232 232 234 228 55 36 159 145 176 237 307 8 214 214 331 32 135 156 159 151 156 150 113 95 109 115 115 120 126 126 122 120 120 121 122 122 122 125 130 132 133 134 133 134 135 139 146 152 157 162 160 151 147 144 135 128 130 137 140 142 143 144 145 146 144 134 125 118 112 109 105 98 83 62 44 35 18 352 333 326 323 322 321 319 320 323
235 228 225 228 215 22 328 264 238 276 316 352 333 301 353 105 166 149 142 156 158 152 137 121 117 117 114 114 116 117 118 118 116 117 118 120 123 126 127 129 131 131 131 131 132 134 138 143 149 155 160 155 142 134 129 124 124 127 130 132 132 130 129 130 128 123 121 119 113 108 106 99 87 76 63 44 24 4 342 329 326 326 323 323 325 325 324
285 269 277 335 55 35 296 279 295 313 317 326 309 297 308 132 184 186 157 156 148 123 122 131 127 122 119 119 118 116 116 115 113 114 117 118 121 122 123 125 128 128 128 129 130 131 135 138 142 148 153 145 133 127 123 121 122 123 125 127 126 124 123 122 120 120 120 114 107 104 100 92 84 73 49 22 7 352 335 325 328 331 329 328 327 324 322
309 284 275 294 323 339 307 288 298 308 305 309 303 286 290 303 206 209 186 168 157 147 149 145 130 126 127 122 118 117 116 113 113 115 115 115 116 119 121 124 127 127 127 127 129 130 132 134 136 139 139 131 126 125 124 123 123 123 123 122 119 118 119 118 117 117 114 109 108 105 96 85 80 63 25 359 357 348 333 329 336 335 330 329 327 325 324
298 274 287 344 337 328 331 306 296 299 291 293 295 277 279 298 273 245 210 181 164 151 151 149 135 130 130 124 121 121 117 116 118 117 116 116 117 119 123 127 130 131 129 129 131 131 131 132 133 132 129 124 123 126 127 125 122 121 120 118 116 114 113 111 105 96 87 82 86 91 81 54 35 33 14 359 357 349 339 341 343 336 330 329 328 327 327
278 265 301 338 320 291 310 306 291 303 298 292 291 275 266 277 269 248 194 179 168 151 149 149 139 133 131 126 125 124 121 120 121 119 118 118 118 121 127 131 133 133 132 132 132 130 128 129 129 127 125 125 125 126 124 121 119 116 112 110 109 107 102 94 85 79 77 69 52 51 48 29 13 16 16 8 360 353 355 353 344 337 336 333 331 332 331
275 260 301 338 321 273 267 339 324 335 323 302 290 272 251 233 226 217 178 169 168 156 152 148 138 132 129 126 126 125 121 119 121 120 119 120 121 125 129 131 132 131 130 130 130 127 125 126 125 125 126 125 124 122 119 116 114 109 103 102 100 96 90 85 78 70 68 63 45 32 37 40 33 27 17 4 350 345 360 360 344 336 334 331 333 335 330
271 277 347 353 331 278 301 341 344 338 321 302 287 271 247 212 193 182 159 148 149 147 148 146 138 130 127 126 125 122 119 120 121 121 121 123 124 127 128 130 131 131 129 129 128 125 125 126 126 127 126 123 121 120 116 113 109 105 103 104 100 94 87 79 70 60 60 64 57 40 33 38 38 28 10 1 353 345 345 344 336 333 332 331 333 331 322
291 317 330 338 323 288 303 326 332 326 313 300 285 270 253 211 179 172 162 146 137 135 139 141 135 129 127 129 127 123 121 123 123 123 126 127 128 129 131 132 132 131 130 129 127 126 126 127 127 125 123 121 120 117 113 111 110 107 106 103 98 94 86 72 59 51 58 71 69 54 37 26 18 7 352 355 360 348 335 330 328 328 330 332 335 329 316
298 307 316 324 314 296 296 309 314 312 304 299 291 273 257 220 179 170 163 149 141 138 132 127 127 126 127 129 129 126 126 128 128 129 129 129 130 132 133 133 132 132 132 131 129 128 127 126 125 123 121 119 119 116 115 116 115 111 107 103 98 90 83 78 70 63 66 71 65 53 46 35 20 2 337 325 317 291 313 320 321 322 322 327 334 332 318
297 302 313 313 300 291 293 299 300 298 294 297 300 290 264 227 180 161 153 144 142 140 130 124 127 128 128 130 131 129 129 131 132 132 131 132 133 134 132 132 132 131 129 128 127 127 126 124 124 122 120 120 120 120 121 121 118 114 110 107 103 95 90 92 92 84 78 74 58 49 55 49 20 349 338 336 335 328 307 295 291 293 300 312 325 333 331
302 301 306 299 284 279 290 296 296 302 312 316 314 302 272 218 165 145 137 133 134 136 131 127 128 129 129 131 132 129 128 130 132 133 133 134 134 133 132 131 130 127 126 126 125 126 127 125 125 124 124 124 125 126 126 124 121 119 116 111 104 100 101 107 107 98 88 84 83 87 85 50 345 330 336 336 332 330 327 316 301 292 297 305 315 326 332
307 305 306 298 283 283 309 317 311 312 323 336 331 308 262 185 145 130 125 122 125 130 129 127 127 127 126 126 126 125 127 131 133 134 134 133 132 133 133 131 128 126 125 124 125 127 127 127 127 127 127 128 130 130 129 127 127 126 124 119 113 111 112 114 109 102 100 100 103 106 94 16 323 326 335 328 319 324 330 328 322 316 317 321 317 317 323
306 310 307 292 281 290 302 309 312 314 324 334 320 289 231 165 138 127 121 118 120 122 124 126 128 128 127 126 125 125 128 131 132 131 131 131 130 130 131 130 129 127 124 124 126 128 129 130 130 129 128 131 134 133 133 134 135 134 133 132 129 126 124 118 107 104 108 110 108 95 33 329 315 325 336 337 337 336 332 329 329 326 327 333 328 319 323
306 316 308 287 278 287 291 294 308 325 330 322 297 268 217 160 138 127 121 120 121 120 121 125 129 130 129 129 129 130 130 131 131 130 129 128 128 129 130 129 127 125 125 127 130 131 132 133 132 130 132 136 137 138 140 142 141 140 142 142 136 130 128 126 121 118 120 115 104 83 286 305 331 340 343 348 347 341 336 337 336 330 330 337 337 334 335
302 304 298 293 298 299 287 283 310 335 314 282 262 243 195 150 132 121 118 120 121 120 121 125 129 131 131 131 132 133 132 131 130 128 127 127 128 130 131 129 128 128 129 132 134 134 134 133 132 132 136 140 143 148 150 147 143 144 144 139 132 129 132 137 139 140 139 135 155 264 276 328 1 358 357 359 351 341 339 339 336 334 338 343 343 345 347
293 293 297 304 311 297 282 284 319 309 261 246 240 224 165 138 127 120 118 118 118 121 128 134 136 137 136 134 133 131 130 129 128 127 127 127 129 131 134 134 134 133 134 136 136 136 134 132 133 136 141 146 151 156 156 151 149 148 144 139 138 143 155 170 182 181 144 127 69 346 1 12 18 20 12 3 353 347 347 344 341 342 346 348 351 356 354
296 303 306 305 299 286 278 277 265 240 229 223 216 202 180 151 134 129 128 128 130 135 141 144 144 143 140 135 132 130 128 128 128 128 127 128 131 134 137 136 132 130 133 136 137 136 135 134 136 143 149 153 157 160 159 156 153 151 148 148 149 155 176 203 225 232 197 151 51 36 23 18 26 31 18 4 355 353 352 348 347 349 350 351 358 360 354
283 292 290 279 268 253 241 239 235 221 207 193 180 183 190 166 137 131 132 133 136 140 144 145 143 139 135 131 130 130 130 128 128 129 131 133 137 138 136 133 130 130 132 135 136 137 138 138 141 147 152 154 158 159 157 155 153 150 150 152 154 157 173 211 249 230 201 152 64 44 30 27 33 26 14 6 358 354 355 352 351 353 354 356 360 357 349
241 246 248 245 237 216 208 214 217 202 182 174 169 167 169 158 139 131 132 136 138 138 141 145 143 137 133 133 133 134 133 131 130 133 135 137 139 138 134 132 131 130 131 134 137 140 142 143 145 149 150 150 150 149 148 148 146 146 150 156 162 164 159 164 215 214 178 92 72 56 33 32 34 21 9 4 358 353 357 357 353 354 358 359 360 357 346
225 229 233 236 233 211 190 191 197 185 167 160 159 161 167 162 143 130 131 136 137 136 141 145 146 142 141 141 140 139 136 133 133 136 138 138 138 136 135 134 133 131 132 136 139 141 142 144 146 146 144 144 144 143 144 146 144 145 152 161 164 148 112 81 56 60 65 73 81 53 31 29 34 23 4 356 357 356 359 1 358 358 1 0 360 359 350
224 226 230 233 231 202 161 167 177 172 161 160 160 161 162 149 135 128 126 125 127 133 139 142 143 143 144 145 146 143 139 135 135 138 140 140 138 138 139 139 139 138 139 141 144 144 141 144 149 146 140 140 143 144 145 146 143 146 160 174 173 156 122 87 68 59 53 50 49 40 28 22 35 25 4 359 4 5 5 7 5 3 4 5 2 359 355
234 238 243 235 196 134 129 145 154 157 168 175 159 144 139 131 124 124 123 121 124 131 136 139 141 142 144 147 147 143 139 137 139 140 141 140 141 142 143 144 146 148 149 150 153 151 146 151 156 151 142 141 147 149 152 152 149 153 170 181 171 144 110 84 73 68 68 59 40 24 12 356 19 29 13 10 15 15 13 13 12 8 7 8 5 1 360
287 285 289 240 119 115 121 132 146 168 181 164 106 97 111 117 115 116 118 119 124 129 132 135 137 137 140 146 146 142 139 140 140 139 140 141 142 144 145 149 154 158 158 157 156 152 151 156 158 153 146 147 150 152 156 157 157 162 175 169 125 90 77 66 57 55 61 64 46 24 21 20 22 25 25 23 23 23 23 19 14 11 10 10 9 7 5
346 360 31 104 109 106 116 133 156 176 166 121 95 92 100 109 117 120 116 115 123 128 129 130 131 132 139 146 145 141 142 143 142 141 140 140 142 144 147 153 159 159 156 156 155 154 156 159 157 152 153 154 151 151 156 160 162 170 175 145 110 80 59 53 55 63 71 74 60 43 39 36 28 25 30 31 28 27 29 26 18 14 14 13 12 11 9
6 19 32 95 116 114 116 127 154 166 145 119 114 120 125 128 130 123 111 110 117 118 116 119 124 130 141 148 144 140 142 143 142 141 140 140 143 147 148 152 156 154 151 152 154 156 161 162 157 153 159 159 153 154 159 162 167 179 178 149 123 94 63 46 42 58 82 102 96 61 51 49 43 35 34 35 33 30 30 28 22 18 18 16 14 14 13
6 10 24 81 109 117 121 129 172 194 166 129 124 134 140 138 129 114 105 106 108 105 108 118 124 130 140 143 137 135 139 140 139 140 142 145 150 155 156 156 156 154 153 156 160 162 164 164 159 158 162 163 158 157 159 163 172 177 157 114 95 81 63 50 39 41 56 76 68 55 49 46 48 46 39 37 38 34 29 27 25 22 20 18 17 18 16
357 360 36 89 102 118 131 145 185 209 189 142 127 126 123 116 112 106 103 105 109 113 124 140 142 138 140 137 130 129 134 136 135 138 146 153 159 163 161 155 155 159 164 166 166 165 165 165 163 164 165 165 163 161 161 168 177 168 138 108 93 73 57 51 47 50 70 79 59 50 46 38 42 47 42 38 42 39 30 26 26 24 21 21 21 21 20
355 358 30 89 111 127 142 162 192 211 205 167 121 94 85 88 96 102 108 119 134 143 145 148 149 143 141 141 139 138 137 135 134 137 144 153 162 169 161 151 157 170 175 170 167 167 167 166 167 167 166 166 167 165 166 171 172 158 132 113 110 88 64 57 53 64 95 97 68 55 49 40 40 45 41 37 43 41 31 27 27 25 23 25 27 25 25
359 2 13 59 119 134 148 168 187 202 210 196 110 79 79 88 101 114 127 140 152 154 145 141 145 150 151 148 145 142 140 141 144 144 144 149 163 178 167 155 164 178 179 171 168 171 170 168 170 172 171 171 172 172 174 179 172 156 137 122 114 94 72 66 67 75 91 89 72 61 54 45 43 46 44 40 42 40 33 30 29 26 25 30 33 32 31
358 2 5 12 99 133 147 162 176 192 205 191 123 93 100 116 125 137 150 153 151 156 163 160 159 167 173 170 158 149 148 152 156 159 163 171 184 190 179 166 169 177 178 174 173 175 173 171 175 177 176 178 180 181 183 186 174 157 142 129 113 94 75 70 75 87 99 98 82 67 59 51 49 51 47 43 44 44 38 33 31 29 31 38 40 36 34
355 357 2 6 22 92 129 146 158 170 177 163 142 156 182 165 141 140 158 164 160 171 189 187 175 174 176 171 158 151 151 154 162 169 174 178 182 184 179 174 173 176 178 178 179 178 174 175 178 178 178 183 187 189 187 182 169 156 145 135 121 104 85 77 83 97 107 101 82 64 55 51 53 56 53 50 52 49 41 35 35 36 39 45 45 41 39
353 351 357 1 4 38 120 142 151 158 162 158 158 184 203 191 154 144 165 186 185 189 200 198 187 182 180 174 163 156 153 153 159 172 179 178 171 170 171 172 174 179 181 182 181 179 178 178 178 179 180 184 187 186 180 170 160 150 143 136 124 105 92 90 96 105 108 104 96 84 67 56 55 60 62 59 57 51 42 36 40 44 47 51 50 46 44
352 345 344 343 338 332 181 169 165 161 159 157 162 177 190 186 164 157 169 181 184 190 200 201 193 187 185 183 178 172 169 166 165 170 180 185 180 171 169 173 179 182 181 179 179 183 183 181 179 179 180 181 182 177 170 163 156 149 147 142 128 111 106 107 109 117 121 118 114 101 77 61 56 61 66 65 65 61 49 38 37 43 52 55 53 51 49
355 347 339 337 337 327 262 220 204 174 157 154 157 163 169 167 161 163 172 178 182 188 195 195 190 184 185 187 187 185 183 182 178 175 178 184 184 175 171 178 184 184 180 176 176 181 183 182 180 179 178 180 179 173 165 162 157 151 149 146 132 116 108 105 106 120 131 127 114 98 78 63 59 62 68 69 69 67 57 47 48 57 67 67 59 53 52
359 354 345 341 343 340 317 290 285 243 185 166 156 157 161 163 163 167 172 178 182 187 190 189 187 185 185 187 190 190 187 185 182 179 180 184 185 176 172 177 183 182 179 176 175 176 177 179 180 180 180 183 183 172 165 165 162 155 151 148 137 124 119 120 125 134 139 129 121 112 92 74 68 70 74 76 74 69 62 58 59 65 68 67 62 57 57
354 355 349 340 336 331 323 317 314 293 243 196 168 163 166 168 167 167 171 175 179 182 184 185 187 188 185 185 189 188 182 180 180 181 181 180 179 175 173 176 179 180 178 176 174 173 173 176 179 181 184 188 185 173 167 169 167 161 157 155 148 139 136 136 136 134 130 130 133 127 109 95 86 80 78 82 83 74 66 60 58 61 64 66 66 64 61
348 352 350 343 335 331 325 318 312 295 254 218 195 183 176 169 163 166 172 175 176 178 179 180 182 183 181 180 183 184 181 178 179 180 179 176 174 174 173 172 174 176 177 178 176 174 173 176 180 184 187 190 184 173 170 172 170 164 161 162 159 152 144 137 130 126 126 134 139 133 120 111 99 85 82 87 88 80 71 66 64 67 72 74 73 69 65